| time (UTC) | temp C | wind direction | speed KPH | gust KPH | rain 1hr cm | rain 24hr cm | rain mn cm | humidity % | barometer mb |
| 20260831054522 | 25 | 69 | 3.2 | 11.3 | 0.00 | 0.00 | 0.00 | 49 | 1023.6 |
| 20260831053021 | 25 | 111 | 3.2 | 8.0 | 0.00 | 0.00 | 0.00 | 47 | 1023.6 |
| 20260831051523 | 25 | 111 | 1.6 | 9.7 | 0.00 | 0.00 | 0.00 | 44 | 1023.6 |
| 20260831050020 | 25 | 138 | 1.6 | 8.0 | 0.00 | 0.00 | 0.00 | 44 | 1023.7 |
| 20260831044515 | 25 | 37 | 1.6 | 9.7 | 0.00 | 0.00 | 0.00 | 40 | 1023.8 |
| 20260831043013 | 25 | 166 | 4.8 | 14.5 | 0.00 | 0.00 | 0.00 | 42 | 1024.0 |
| 20260831041529 | 25 | 144 | 3.2 | 9.7 | 0.00 | 0.00 | 0.00 | 42 | 1024.1 |
| 20260831040011 | 26 | 90 | 4.8 | 9.7 | 0.00 | 0.00 | 0.00 | 40 | 1024.2 |
| 20260831034508 | 25 | 130 | 3.2 | 8.0 | 0.00 | 0.00 | 0.00 | 39 | 1024.3 |
| 20260831033006 | 25 | 244 | 1.6 | 4.8 | 0.00 | 0.00 | 0.00 | 42 | 1024.5 |
| 20260831031505 | 24 | 196 | 3.2 | 9.7 | 0.00 | 0.00 | 0.00 | 41 | 1024.7 |
| 20260831030108 | 24 | 322 | 4.8 | 11.3 | 0.00 | 0.00 | 0.00 | 41 | 1024.9 |
| 20260831024617 | 23 | 30 | 1.6 | 8.0 | 0.00 | 0.00 | 0.00 | 43 | 1025.2 |
| 20260831023053 | 23 | 131 | 3.2 | 9.7 | 0.00 | 0.00 | 0.00 | 41 | 1025.4 |
| 20260831021553 | 22 | 244 | 0.0 | 8.0 | 0.00 | 0.00 | 0.00 | 46 | 1025.7 |
| 20260831020047 | 22 | 9 | 4.8 | 11.3 | 0.00 | 0.00 | 0.00 | 48 | 1025.9 |
| 20260831014543 | 21 | 225 | 0.0 | 6.4 | 0.00 | 0.00 | 0.00 | 50 | 1026.3 |
| 20260831013040 | 21 | 355 | 0.0 | 6.4 | 0.00 | 0.00 | 0.00 | 52 | 1026.7 |
| 20260831011547 | 20 | 83 | 1.6 | 8.0 | 0.00 | 0.00 | 0.00 | 52 | 1027.0 |
| 20260831010036 | 20 | 328 | 0.0 | 6.4 | 0.00 | 0.00 | 0.00 | 56 | 1027.1 |
| 20260831004530 | 19 | 327 | 0.0 | 6.4 | 0.00 | 0.00 | 0.00 | 60 | 1027.3 |
| 20260831003033 | 18 | 313 | 1.6 | 4.8 | 0.00 | 0.00 | 0.00 | 62 | 1027.4 |
| 20260831001522 | 17 | 90 | 1.6 | 4.8 | 0.00 | 0.00 | 0.00 | 66 | 1027.4 |
| 20260831000019 | 17 | 17 | 0.0 | 6.4 | 0.00 | 0.00 | 0.00 | 68 | 1027.4 |
| 20260830234513 | 16 | 240 | 0.0 | 6.4 | 0.00 | 0.03 | 0.00 | 71 | 1027.4 |
| 20260830233019 | 15 | 300 | 3.2 | 6.4 | 0.00 | 0.03 | 0.00 | 73 | 1027.6 |
| 20260830231505 | 14 | 301 | 1.6 | 8.0 | 0.00 | 0.03 | 0.00 | 74 | 1027.5 |
| 20260830230001 | 13 | 335 | 1.6 | 6.4 | 0.00 | 0.03 | 0.00 | 76 | 1027.5 |
| 20260830224558 | 13 | 309 | 0.0 | 4.8 | 0.00 | 0.03 | 0.00 | 77 | 1027.7 |
| 20260830223130 | 12 | 286 | 1.6 | 6.4 | 0.00 | 0.03 | 0.00 | 77 | 1027.7 |
| 20260830221554 | 12 | 284 | 3.2 | 6.4 | 0.00 | 0.03 | 0.00 | 80 | 1027.6 |
| 20260830220048 | 11 | 291 | 0.0 | 4.8 | 0.00 | 0.03 | 0.00 | 82 | 1027.6 |
| 20260830214544 | 11 | 298 | 1.6 | 4.8 | 0.00 | 0.03 | 0.00 | 85 | 1027.3 |
| 20260830213040 | 10 | 298 | 0.0 | 4.8 | 0.00 | 0.03 | 0.00 | 90 | 1027.2 |
| 20260830211536 | 8 | 19 | 0.0 | 1.6 | 0.00 | 0.03 | 0.00 | 94 | 1027.1 |
| 20260830210032 | 8 | 23 | 0.0 | 1.6 | 0.00 | 0.03 | 0.00 | 93 | 1027.2 |
| 20260830204528 | 7 | 23 | 0.0 | 1.6 | 0.00 | 0.03 | 0.00 | 93 | 1026.9 |
| 20260830203026 | 7 | 23 | 0.0 | 1.6 | 0.00 | 0.03 | 0.00 | 92 | 1026.8 |
| 20260830201523 | 8 | 23 | 0.0 | 1.6 | 0.00 | 0.03 | 0.00 | 92 | 1026.6 |
| 20260830200021 | 8 | 23 | 0.0 | 1.6 | 0.00 | 0.03 | 0.00 | 92 | 1026.6 |
| 20260830194522 | 8 | 23 | 0.0 | 3.2 | 0.00 | 0.03 | 0.00 | 92 | 1026.4 |
| 20260830193019 | 8 | 23 | 0.0 | 1.6 | 0.00 | 0.03 | 0.00 | 92 | 1026.2 |
| 20260830191520 | 8 | 23 | 0.0 | 4.8 | 0.00 | 0.03 | 0.00 | 92 | 1026.0 |
| 20260830190021 | 8 | 23 | 0.0 | 3.2 | 0.00 | 0.03 | 0.00 | 92 | 1025.9 |
| 20260830184523 | 8 | 23 | 1.6 | 4.8 | 0.00 | 0.03 | 0.00 | 92 | 1025.9 |
| 20260830183015 | 8 | 24 | 1.6 | 6.4 | 0.00 | 0.03 | 0.00 | 93 | 1026.1 |
| 20260830181514 | 8 | 30 | 0.0 | 3.2 | 0.00 | 0.03 | 0.00 | 92 | 1026.1 |
| 20260830180013 | 8 | 30 | 0.0 | 0.0 | 0.00 | 0.03 | 0.00 | 91 | 1026.3 |
| 20260830174511 | 8 | 30 | 0.0 | 3.2 | 0.00 | 0.03 | 0.00 | 92 | 1026.2 |
| 20260830173010 | 8 | 30 | 1.6 | 3.2 | 0.00 | 0.03 | 0.00 | 92 | 1026.2 |
| 20260830171509 | 8 | 30 | 1.6 | 4.8 | 0.00 | 0.03 | 0.00 | 93 | 1026.3 |
| 20260830170007 | 8 | 103 | 0.0 | 0.0 | 0.00 | 0.03 | 0.00 | 91 | 1026.6 |
| 20260830164506 | 8 | 103 | 0.0 | 0.0 | 0.00 | 0.03 | 0.00 | 91 | 1026.6 |
| 20260830163003 | 8 | 103 | 0.0 | 1.6 | 0.00 | 0.03 | 0.00 | 91 | 1026.5 |
| 20260830161501 | 8 | 103 | 0.0 | 0.0 | 0.00 | 0.03 | 0.00 | 91 | 1026.6 |
| 20260830160059 | 8 | 103 | 0.0 | 0.0 | 0.00 | 0.03 | 0.00 | 91 | 1026.5 |
| 20260830154558 | 9 | 103 | 0.0 | 0.0 | 0.00 | 0.03 | 0.00 | 91 | 1026.6 |
| 20260830153056 | 9 | 103 | 0.0 | 0.0 | 0.00 | 0.03 | 0.00 | 91 | 1026.6 |
| 20260830151607 | 9 | 103 | 0.0 | 0.0 | 0.00 | 0.03 | 0.00 | 90 | 1026.6 |
| 20260830150100 | 10 | 103 | 0.0 | 0.0 | 0.00 | 0.03 | 0.00 | 89 | 1026.5 |
| 20260830144551 | 10 | 103 | 0.0 | 0.0 | 0.00 | 0.03 | 0.00 | 89 | 1026.7 |
| 20260830143049 | 10 | 103 | 0.0 | 3.2 | 0.00 | 0.03 | 0.00 | 89 | 1026.7 |
| 20260830141548 | 10 | 103 | 0.0 | 0.0 | 0.00 | 0.03 | 0.00 | 90 | 1026.7 |
| 20260830140046 | 10 | 103 | 0.0 | 0.0 | 0.00 | 0.03 | 0.00 | 89 | 1026.7 |
| 20260830134545 | 10 | 103 | 0.0 | 0.0 | 0.00 | 0.03 | 0.03 | 88 | 1026.7 |
| 20260830133044 | 10 | 103 | 0.0 | 0.0 | 0.00 | 0.03 | 0.03 | 88 | 1026.8 |
| 20260830131549 | 10 | 103 | 0.0 | 0.0 | 0.00 | 0.03 | 0.03 | 88 | 1026.9 |
| 20260830130053 | 11 | 103 | 0.0 | 0.0 | 0.00 | 0.03 | 0.03 | 88 | 1026.7 |
| 20260830124543 | 11 | 103 | 0.0 | 0.0 | 0.00 | 0.03 | 0.03 | 87 | 1026.6 |
| 20260830123143 | 11 | 103 | 0.0 | 0.0 | 0.00 | 0.03 | 0.03 | 86 | 1026.6 |
| 20260830121542 | 11 | 103 | 0.0 | 0.0 | 0.00 | 0.03 | 0.03 | 86 | 1026.7 |
| 20260830120046 | 11 | 103 | 0.0 | 0.0 | 0.00 | 0.03 | 0.03 | 86 | 1026.7 |
| 20260830114542 | 12 | 103 | 0.0 | 1.6 | 0.00 | 0.03 | 0.03 | 85 | 1026.7 |
| 20260830113040 | 12 | 103 | 0.0 | 3.2 | 0.00 | 0.03 | 0.03 | 85 | 1026.6 |
| 20260830111541 | 12 | 103 | 0.0 | 0.0 | 0.00 | 0.03 | 0.03 | 84 | 1026.3 |
| 20260830110050 | 12 | 103 | 0.0 | 0.0 | 0.00 | 0.03 | 0.03 | 83 | 1026.2 |
| 20260830104543 | 13 | 103 | 0.0 | 0.0 | 0.00 | 0.03 | 0.03 | 82 | 1026.1 |
| 20260830103038 | 13 | 103 | 0.0 | 0.0 | 0.00 | 0.03 | 0.03 | 80 | 1026.1 |
| 20260830101538 | 13 | 103 | 0.0 | 0.0 | 0.00 | 0.03 | 0.03 | 79 | 1026.0 |
| 20260830100049 | 14 | 103 | 0.0 | 0.0 | 0.00 | 0.03 | 0.03 | 77 | 1025.7 |
| 20260830094537 | 15 | 103 | 0.0 | 0.0 | 0.00 | 0.03 | 0.03 | 75 | 1025.6 |
| 20260830093037 | 15 | 103 | 0.0 | 0.0 | 0.00 | 0.03 | 0.03 | 73 | 1025.5 |
| 20260830091540 | 16 | 103 | 0.0 | 0.0 | 0.00 | 0.03 | 0.03 | 71 | 1025.5 |
| 20260830090035 | 16 | 103 | 0.0 | 3.2 | 0.00 | 0.03 | 0.03 | 69 | 1025.4 |
| 20260830084610 | 17 | 103 | 1.6 | 3.2 | 0.00 | 0.03 | 0.03 | 67 | 1025.3 |
| 20260830083037 | 17 | 103 | 1.6 | 3.2 | 0.00 | 0.03 | 0.03 | 65 | 1025.2 |
| 20260830081540 | 18 | 103 | 0.0 | 1.6 | 0.00 | 0.03 | 0.03 | 62 | 1024.9 |
| 20260830080034 | 18 | 103 | 0.0 | 0.0 | 0.00 | 0.03 | 0.03 | 59 | 1024.7 |
| 20260830074542 | 20 | 103 | 0.0 | 3.2 | 0.00 | 0.03 | 0.03 | 57 | 1024.5 |
| 20260830073033 | 20 | 103 | 0.0 | 3.2 | 0.00 | 0.03 | 0.03 | 53 | 1024.5 |
| 20260830071533 | 21 | 101 | 1.6 | 9.7 | 0.00 | 0.03 | 0.03 | 50 | 1024.4 |
| 20260830070032 | 22 | 87 | 4.8 | 9.7 | 0.00 | 0.03 | 0.03 | 45 | 1024.3 |
| 20260830064532 | 22 | 93 | 0.0 | 9.7 | 0.00 | 0.03 | 0.03 | 43 | 1024.2 |
| 20260830063031 | 22 | 94 | 3.2 | 11.3 | 0.00 | 0.03 | 0.03 | 40 | 1024.2 |
| 20260830061532 | 23 | 151 | 1.6 | 9.7 | 0.00 | 0.03 | 0.03 | 37 | 1024.2 |
| 20260830060030 | 23 | 107 | 1.6 | 12.9 | 0.00 | 0.03 | 0.03 | 33 | 1024.3 |